Temperature
20 20 20 20 20 20 20 20 20 20 20 20 20 19 19 19 19 19 19 19 19 19 18 18 18 18 18 18 18 18 18 18 18 18 17 17 17 17 17 17 17 17 17
21 20 20 20 20 20 20 20 20 20 19 19 19 19 19 19 19 19 19 19 19 19 18 18 18 18 18 18 18 18 18 18 18 18 17 17 17 17 17 18 18 17 17
21 20 20 20 20 20 20 20 20 19 19 19 19 19 19 19 19 19 19 19 19 19 18 18 18 18 18 18 18 18 18 18 18 18 17 17 17 17 17 18 18 18 17
21 21 20 20 20 20 20 20 19 19 19 19 19 19 19 19 19 19 19 19 19 19 19 18 18 18 18 18 17 17 17 17 17 18 17 17 17 17 17 17 17 17 17
21 21 20 20 20 20 20 19 19 19 19 19 19 19 19 19 19 19 19 19 18 18 18 18 18 18 18 18 17 17 17 17 17 18 18 17 17 17 17 17 17 17 17
21 21 20 20 20 20 20 19 19 19 19 19 19 19 19 19 19 19 19 19 18 18 18 18 18 18 18 17 17 17 17 17 17 18 18 18 17 17 17 17 17 17 17
21 21 21 20 20 20 20 20 19 19 19 19 19 19 19 19 19 19 18 18 18 18 18 18 18 18 18 17 17 17 17 17 18 18 18 18 17 17 17 17 17 17 17
22 21 20 20 20 20 20 20 19 19 19 19 19 19 19 19 18 18 19 19 19 19 18 18 18 18 18 17 17 17 17 17 18 18 18 18 18 17 17 17 17 17 17
22 21 21 20 20 20 20 20 20 19 19 19 19 19 19 19 18 18 19 19 19 18 18 18 18 18 18 17 17 17 17 18 18 18 18 18 18 18 17 17 17 17 17
21 21 21 21 20 20 20 20 19 19 19 19 19 19 19 19 18 19 19 19 18 18 18 18 18 18 18 17 17 17 17 18 18 18 18 18 18 18 18 17 17 17 17
21 21 21 21 20 20 20 20 19 19 19 19 19 19 19 19 18 18 18 18 18 19 19 18 18 18 18 18 18 17 17 18 18 18 18 18 18 18 18 18 17 17 17
21 21 21 21 21 20 20 20 20 19 19 19 19 19 19 18 18 18 18 18 18 19 18 18 18 18 18 18 18 18 17 18 18 18 18 18 18 18 18 18 17 17 17
22 21 21 21 21 20 20 20 20 19 19 19 19 19 19 18 18 18 18 18 18 18 18 18 18 18 18 18 18 18 18 18 18 18 18 18 18 18 18 18 17 17 17
21 21 21 21 21 20 20 20 20 19 19 19 19 19 19 18 18 18 18 18 18 18 18 18 18 18 18 18 18 18 18 18 18 18 18 18 18 18 18 18 17 17 17
21 21 21 21 21 20 20 20 20 19 19 19 19 19 19 18 18 18 18 18 18 18 18 18 18 18 18 18 18 18 18 18 18 18 18 18 18 18 18 18 17 17 17
21 21 21 20 20 20 20 20 20 19 19 19 19 19 19 19 18 18 18 18 18 18 18 18 18 18 18 18 18 18 18 18 18 18 18 18 18 18 18 17 17 17 17
21 21 21 21 20 20 20 20 19 19 19 19 19 19 19 19 18 18 18 18 18 18 18 18 18 18 18 18 18 18 18 18 18 18 18 18 18 17 17 17 17 17 17
22 21 21 20 20 20 20 19 19 19 19 19 19 19 19 19 19 18 18 18 18 18 18 18 18 18 18 18 18 18 18 18 18 18 18 18 18 17 17 17 17 17 17
22 21 21 21 20 20 20 19 19 19 19 19 19 19 19 19 19 18 18 18 18 18 18 18 18 18 18 18 18 18 18 18 18 18 18 18 17 17 17 17 17 17 17
22 22 21 21 21 20 20 20 19 19 19 19 19 19 19 19 19 19 18 18 18 18 18 18 18 18 18 18 18 18 18 18 18 18 18 18 18 17 17 17 17 17 17
22 21 21 21 20 20 20 20 19 19 19 19 19 19 19 19 18 18 18 18 18 18 18 18 18 18 18 18 18 18 18 18 18 18 18 18 18 18 18 17 17 17 17
22 22 21 21 21 20 20 20 20 19 19 19 19 19 18 18 18 18 18 18 18 18 18 18 18 18 18 18 18 18 18 18 18 18 18 18 18 18 18 18 17 17 17
22 22 21 21 21 20 20 19 19 19 19 18 18 18 18 18 18 18 18 18 18 18 18 18 18 18 18 18 18 18 18 18 18 18 18 18 18 18 18 18 18 18 17
22 22 21 21 20 20 20 19 19 19 19 19 19 19 19 18 18 18 18 18 18 18 18 18 18 18 18 18 18 18 18 18 18 18 18 18 18 18 18 18 18 18 18
22 22 21 21 20 20 19 19 19 19 19 19 19 19 18 18 18 18 18 18 18 18 18 18 18 18 18 18 18 18 18 18 18 18 18 18 18 18 18 18 18 18 18
22 21 21 20 20 20 19 19 19 19 19 18 18 18 18 18 18 18 18 18 18 18 18 18 18 18 18 18 18 18 18 18 18 18 18 18 18 18 18 18 18 18 18
Wind_Speed
9 13 20 19 19 19 19 19 19 20 20 20 21 21 21 21 20 20 19 19 18 18 18 18 19 19 19 19 20 20 20 21 21 21 21 20 20 21 21 20 19 18 20
13 17 21 21 20 19 19 19 19 19 19 19 19 19 19 19 19 19 18 18 18 18 18 18 18 18 19 19 19 19 20 20 20 20 20 19 19 20 20 19 18 17 19
17 18 21 21 20 20 19 18 18 18 18 18 18 18 18 18 18 18 18 17 17 17 17 17 17 17 17 17 18 18 19 20 20 20 19 16 18 19 19 19 19 19 18
17 18 19 21 21 20 19 18 18 18 18 17 17 17 17 17 17 17 17 16 16 16 16 16 16 16 16 16 16 17 17 18 19 18 15 15 16 18 19 19 18 18 18
15 17 20 22 21 20 19 18 18 17 17 17 16 16 16 16 16 16 16 16 15 15 15 15 15 15 15 15 14 15 15 16 17 15 14 15 15 18 18 17 17 17 17
13 16 20 22 21 20 19 18 17 17 17 16 16 16 16 16 16 15 15 15 15 14 14 14 14 13 13 13 13 13 14 15 15 15 15 15 15 17 17 16 16 16 16
13 15 19 21 21 20 19 18 17 17 16 16 16 16 15 15 15 15 15 15 14 14 13 12 12 12 11 11 11 11 12 14 15 15 14 14 15 16 16 16 15 15 15
16 14 18 21 20 19 19 18 17 17 16 16 15 15 15 15 14 14 14 14 13 13 12 11 11 10 9 9 9 11 13 15 15 15 13 14 15 16 15 15 15 14 14
15 13 14 17 18 19 18 18 17 17 16 16 15 15 15 14 14 14 14 13 13 12 11 10 9 8 8 7 8 9 11 14 15 14 13 13 15 15 15 14 14 13 13
12 11 10 13 15 15 16 18 17 17 16 16 15 15 15 14 14 14 13 13 12 11 10 9 8 7 6 6 6 8 11 13 13 13 13 13 16 15 14 14 13 13 13
13 10 9 10 12 13 14 16 17 16 16 15 15 15 13 12 12 12 12 12 12 11 9 8 7 5 4 4 5 8 9 9 12 12 12 15 16 15 14 14 13 13 12
15 13 11 11 11 13 13 14 13 13 14 13 13 13 12 11 11 11 12 12 11 10 8 7 5 4 2 1 3 5 8 10 11 11 12 16 16 15 14 14 13 12 12
17 15 13 12 12 11 8 11 9 10 11 11 12 13 12 10 9 9 9 9 9 8 6 5 4 3 3 2 3 5 8 9 10 11 13 17 16 15 14 14 13 12 12
17 16 14 13 12 10 10 9 9 8 8 9 12 14 11 7 7 7 7 7 7 6 5 5 4 4 4 4 4 6 8 9 9 11 14 17 16 15 15 14 13 13 12
16 16 16 14 13 11 10 8 9 8 9 11 12 13 13 8 6 6 6 7 7 7 6 5 4 4 3 3 5 8 9 10 11 12 13 17 16 15 15 14 14 13 13
16 16 15 15 13 11 10 8 8 9 10 11 11 13 15 12 9 7 6 6 7 8 8 7 5 3 3 3 3 7 9 12 13 13 14 16 17 16 16 15 15 14 13
15 15 15 15 13 12 11 10 9 10 11 9 10 14 15 14 12 9 6 6 7 10 9 7 5 3 2 2 2 4 7 10 12 13 14 14 15 16 17 16 15 15 14
14 14 15 15 13 12 10 8 7 9 10 9 11 12 14 14 14 10 6 5 9 9 7 4 3 2 2 2 2 3 4 7 10 12 13 13 14 14 16 17 16 16 16
14 14 13 11 13 11 9 7 7 7 8 9 10 10 12 13 13 10 6 6 9 6 4 5 3 3 3 3 3 3 3 4 6 10 10 13 15 15 15 17 17 17 17
13 13 12 11 12 10 7 5 4 4 5 7 8 10 12 11 12 10 7 7 7 4 4 4 3 3 3 3 2 1 2 4 4 6 8 11 14 15 16 15 16 17 18
12 13 13 12 11 9 6 6 5 5 5 5 5 9 11 11 11 9 6 5 5 5 6 6 4 3 2 2 2 1 3 2 3 5 6 7 9 14 16 16 16 15 16
14 13 12 12 12 10 8 6 4 4 4 5 4 7 11 12 11 10 7 6 6 5 5 5 4 3 3 3 3 2 1 3 3 4 4 6 7 9 11 15 16 17 16
13 14 13 12 11 10 8 5 4 3 2 3 4 5 8 12 12 10 9 7 7 7 6 6 6 6 4 3 3 4 3 4 3 3 3 5 5 6 7 11 15 17 18
13 12 11 11 11 9 9 8 8 6 6 6 6 6 7 10 10 11 9 8 7 6 7 7 6 5 5 3 2 3 3 4 3 2 3 3 4 6 7 8 11 15 17
11 11 10 10 10 9 9 10 9 7 6 4 4 6 7 7 8 10 10 8 7 7 7 7 6 6 5 5 4 3 2 1 2 3 3 3 3 4 5 6 7 11 15
9 10 10 10 8 8 9 9 9 9 7 6 6 7 6 5 6 8 9 8 8 7 7 7 7 7 6 6 4 4 4 3 3 3 3 3 3 4 4 4 5 7 12
Wind_Direction
143 146 138 131 125 120 115 111 107 105 103 102 102 103 104 106 107 107 106 106 106 105 104 104 104 104 105 106 107 108 109 110 111 111 112 113 113 113 113 111 110 109 111
145 146 139 134 130 125 120 116 113 110 108 107 107 107 108 108 109 108 107 107 107 107 106 105 105 106 107 108 110 111 112 111 110 110 111 112 114 114 113 112 111 113 112
139 142 140 136 133 129 125 122 119 116 113 113 112 112 112 112 112 111 110 109 108 108 107 107 107 108 109 110 111 113 114 113 111 109 107 106 111 112 114 113 113 113 113
138 140 141 138 135 132 129 127 124 122 120 118 118 118 117 117 116 115 113 112 112 111 110 111 110 111 110 110 112 115 116 115 113 110 106 107 111 113 114 115 115 115 114
135 139 143 140 137 135 133 131 129 127 125 124 123 122 122 121 120 120 118 117 116 115 114 114 113 112 111 111 114 117 117 116 116 111 106 107 112 117 118 118 117 116 115
133 138 143 141 139 138 137 136 133 132 130 129 127 125 125 124 124 123 122 120 119 119 118 117 117 116 113 111 112 115 117 116 115 114 113 113 117 121 121 121 120 119 117
135 138 143 142 142 141 141 139 137 136 134 132 131 129 128 128 127 126 126 125 123 123 122 122 121 118 114 109 109 115 118 121 122 120 119 119 123 125 124 123 123 122 121
140 140 144 145 145 145 145 143 141 140 139 137 135 134 133 132 132 131 131 130 129 128 128 126 125 121 115 108 105 112 118 126 127 128 126 126 128 127 128 128 127 126 125
141 141 144 148 149 149 148 148 147 145 144 143 141 139 138 137 137 137 137 136 135 134 134 132 130 126 121 114 107 114 120 129 130 133 134 133 134 134 133 133 133 131 130
142 145 145 148 149 150 152 153 152 150 150 149 148 147 145 145 144 143 142 143 142 142 142 142 139 136 129 121 111 115 125 129 138 139 139 144 143 141 140 140 140 138 136
150 153 152 150 151 152 154 159 157 157 157 156 156 155 149 146 148 149 152 151 150 151 153 154 152 152 142 126 124 127 128 134 144 143 149 152 151 149 148 147 147 146 144
161 165 165 161 161 161 164 159 161 161 161 161 162 157 154 156 160 162 163 161 160 161 165 172 174 182 178 151 133 129 130 135 144 151 159 160 158 156 155 154 154 154 153
166 168 170 170 169 170 162 159 166 163 164 169 170 167 166 167 172 167 166 168 169 169 171 184 196 218 235 217 167 143 143 145 155 163 167 167 165 163 162 163 162 162 161
169 173 172 173 173 174 164 168 171 168 174 179 182 181 173 167 168 169 171 174 175 176 179 186 206 233 250 239 193 161 154 156 161 164 172 174 172 171 170 171 172 171 171
171 174 174 174 176 173 169 178 176 177 182 185 185 185 177 169 172 176 176 180 187 187 188 192 208 231 244 223 179 160 160 162 165 170 178 181 180 179 178 179 180 180 181
173 174 173 175 176 172 175 179 177 180 183 183 185 186 183 178 175 175 177 184 194 197 197 197 204 215 230 199 172 164 164 166 171 176 180 186 188 187 186 187 188 189 190
171 170 173 176 175 174 175 178 177 180 180 181 186 186 184 181 177 174 177 186 196 197 197 200 208 212 208 185 176 169 163 171 175 180 184 188 192 195 195 196 196 197 198
165 169 174 176 173 174 172 170 166 173 176 181 184 183 184 182 178 172 175 186 190 187 185 183 183 179 198 188 191 188 171 177 182 185 188 192 194 200 204 205 203 203 206
167 169 172 168 170 172 169 165 160 166 170 177 180 179 182 182 180 174 179 185 184 179 180 193 178 174 189 202 203 199 192 187 186 190 192 197 200 203 204 209 210 209 211
170 170 171 168 171 166 160 153 151 161 173 176 179 181 183 185 183 177 181 182 176 168 176 179 170 174 184 193 201 206 229 212 197 195 198 201 205 208 208 210 212 216 218
171 172 174 172 173 167 167 169 170 179 182 178 185 185 186 190 187 182 182 177 172 177 185 178 165 172 193 157 103 358 327 287 228 216 205 198 204 208 208 209 211 214 219
177 178 177 177 176 177 179 177 172 167 181 185 188 192 193 196 192 192 182 183 181 179 184 184 168 167 195 163 141 122 332 330 302 241 214 205 207 205 206 210 211 213 216
182 180 180 180 180 179 171 160 152 143 148 172 190 198 200 199 197 194 186 185 187 184 192 193 179 170 186 202 171 153 162 223 273 296 242 218 203 201 209 210 212 215 217
184 178 176 178 178 177 171 174 176 185 194 200 195 197 202 202 199 196 193 191 191 191 193 199 189 177 169 193 214 205 185 166 170 276 304 260 223 212 212 215 216 216 217
176 172 172 173 179 181 182 183 185 197 202 197 192 194 201 204 201 197 196 193 194 194 198 198 186 184 182 184 190 192 194 179 164 169 255 287 279 241 220 214 214 216 217
168 169 171 172 182 184 187 189 192 196 195 194 200 202 204 209 210 204 200 198 198 197 201 201 194 190 193 190 189 187 178 179 194 182 207 243 257 263 239 219 215 215 217
Height
1527 1529 1531 1532 1533 1535 1535 1536 1537 1538 1539 1540 1540 1541 1542 1543 1544 1544 1545 1546 1546 1547 1548 1548 1549 1550 1551 1551 1552 1553 1553 1554 1555 1555 1556 1557 1558 1559 1560 1561 1562 1562 1563
1526 1529 1532 1533 1535 1536 1537 1538 1539 1540 1541 1542 1542 1543 1544 1545 1546 1547 1547 1548 1549 1549 1550 1551 1551 1552 1553 1554 1554 1555 1556 1556 1557 1558 1559 1560 1561 1562 1562 1563 1564 1564 1565
1526 1530 1533 1534 1536 1537 1538 1540 1541 1542 1542 1543 1544 1545 1546 1547 1548 1549 1549 1550 1551 1552 1552 1553 1554 1554 1555 1556 1556 1557 1558 1559 1560 1560 1561 1562 1563 1564 1564 1565 1566 1567 1567
1527 1530 1533 1535 1537 1538 1540 1541 1542 1543 1544 1545 1546 1547 1548 1549 1550 1551 1551 1552 1553 1554 1554 1555 1556 1557 1557 1558 1559 1559 1560 1561 1562 1563 1563 1564 1565 1566 1566 1567 1568 1569 1569
1529 1531 1534 1536 1538 1539 1541 1542 1544 1545 1546 1547 1548 1549 1549 1550 1551 1552 1553 1554 1555 1556 1556 1557 1558 1559 1560 1560 1561 1562 1562 1563 1564 1565 1566 1566 1567 1568 1568 1569 1570 1570 1571
1530 1533 1535 1537 1539 1540 1542 1543 1545 1546 1547 1548 1549 1550 1551 1552 1553 1554 1555 1556 1557 1557 1558 1559 1560 1561 1562 1563 1564 1564 1565 1565 1566 1567 1568 1568 1569 1569 1570 1571 1571 1572 1573
1530 1533 1536 1538 1540 1541 1543 1544 1546 1547 1548 1549 1550 1551 1552 1553 1554 1555 1556 1557 1558 1559 1560 1561 1562 1563 1564 1565 1566 1566 1567 1568 1568 1569 1570 1570 1571 1571 1572 1572 1573 1574 1575
1531 1533 1536 1539 1540 1542 1544 1545 1547 1548 1549 1550 1551 1553 1554 1555 1556 1557 1558 1559 1560 1561 1562 1563 1564 1565 1566 1567 1568 1568 1569 1569 1570 1571 1571 1572 1572 1573 1574 1574 1575 1576 1576
1532 1534 1537 1539 1541 1543 1544 1546 1547 1549 1550 1551 1552 1554 1555 1556 1557 1558 1559 1560 1561 1563 1564 1565 1566 1567 1568 1569 1570 1571 1571 1572 1572 1572 1573 1573 1574 1575 1575 1576 1576 1577 1578
1533 1535 1537 1539 1541 1543 1545 1547 1548 1550 1551 1552 1553 1555 1556 1557 1558 1559 1560 1562 1563 1564 1565 1566 1568 1569 1570 1571 1572 1572 1573 1573 1574 1574 1574 1575 1575 1576 1577 1577 1578 1578 1579
1533 1536 1537 1539 1541 1543 1545 1547 1549 1550 1552 1553 1554 1555 1557 1558 1559 1560 1562 1563 1564 1565 1566 1568 1569 1570 1571 1572 1573 1574 1574 1575 1575 1575 1576 1576 1576 1577 1578 1578 1579 1580 1580
1532 1535 1537 1539 1541 1543 1545 1547 1548 1550 1552 1553 1554 1556 1557 1559 1560 1561 1563 1564 1565 1566 1568 1569 1570 1571 1573 1573 1574 1575 1575 1576 1576 1576 1577 1577 1577 1578 1578 1579 1580 1580 1581
1531 1534 1537 1539 1541 1543 1545 1546 1548 1550 1551 1553 1555 1556 1558 1559 1560 1562 1563 1564 1566 1567 1569 1570 1571 1572 1573 1574 1575 1576 1576 1576 1577 1577 1577 1578 1578 1578 1579 1580 1580 1581 1581
1530 1533 1536 1538 1540 1542 1544 1546 1548 1550 1551 1553 1554 1556 1557 1559 1561 1562 1564 1565 1566 1568 1569 1570 1572 1573 1574 1575 1575 1576 1577 1577 1578 1578 1578 1578 1579 1579 1579 1580 1580 1581 1582
1529 1532 1534 1537 1539 1541 1543 1545 1547 1549 1551 1553 1554 1556 1557 1559 1560 1562 1564 1565 1566 1568 1569 1570 1571 1573 1574 1575 1575 1576 1577 1577 1578 1578 1578 1578 1579 1579 1580 1580 1581 1581 1582
1527 1530 1533 1535 1538 1540 1542 1544 1546 1548 1550 1552 1554 1555 1557 1558 1560 1562 1563 1565 1566 1568 1569 1571 1572 1573 1574 1574 1575 1576 1577 1577 1578 1578 1578 1578 1578 1579 1579 1580 1580 1581 1581
1526 1528 1531 1534 1537 1539 1541 1543 1545 1547 1549 1551 1553 1554 1556 1558 1559 1561 1563 1564 1566 1567 1569 1570 1571 1572 1573 1574 1575 1576 1576 1577 1577 1577 1578 1578 1578 1578 1579 1579 1580 1580 1581
1525 1527 1530 1533 1535 1537 1540 1542 1544 1546 1547 1549 1551 1553 1555 1557 1558 1560 1562 1563 1565 1566 1568 1569 1570 1571 1572 1573 1574 1575 1575 1576 1576 1577 1577 1577 1577 1578 1578 1578 1579 1579 1580
1523 1525 1528 1531 1533 1536 1538 1540 1542 1544 1546 1548 1549 1551 1553 1555 1557 1559 1561 1562 1564 1565 1567 1568 1569 1570 1571 1572 1573 1573 1574 1575 1575 1575 1576 1576 1576 1577 1577 1577 1578 1578 1578
1521 1524 1526 1529 1531 1534 1536 1538 1540 1542 1544 1546 1547 1549 1551 1553 1555 1557 1559 1561 1562 1564 1565 1566 1568 1569 1570 1571 1572 1572 1573 1573 1573 1574 1574 1574 1575 1575 1576 1576 1576 1577 1577
1519 1521 1524 1526 1529 1531 1533 1535 1537 1539 1541 1543 1545 1547 1549 1551 1553 1555 1556 1558 1560 1561 1563 1564 1566 1567 1568 1569 1570 1571 1571 1571 1571 1572 1572 1572 1573 1574 1574 1575 1575 1575 1576
1516 1518 1521 1523 1526 1528 1530 1532 1535 1536 1538 1541 1542 1544 1546 1548 1550 1552 1554 1555 1557 1559 1561 1562 1563 1564 1566 1567 1568 1568 1569 1570 1569 1569 1570 1570 1571 1571 1572 1573 1573 1573 1574
1513 1515 1518 1521 1523 1525 1528 1530 1532 1534 1535 1537 1539 1540 1543 1545 1547 1549 1551 1552 1554 1556 1558 1559 1561 1562 1563 1565 1566 1567 1566 1566 1566 1567 1567 1568 1568 1569 1569 1570 1571 1571 1571
1509 1513 1516 1518 1520 1522 1524 1526 1527 1529 1530 1532 1534 1537 1539 1542 1543 1545 1547 1549 1551 1553 1554 1556 1558 1559 1560 1562 1563 1564 1565 1565 1565 1565 1565 1565 1566 1566 1567 1567 1568 1568 1568
1508 1510 1513 1515 1517 1519 1521 1522 1524 1525 1527 1529 1531 1534 1536 1538 1540 1541 1543 1545 1547 1549 1551 1553 1554 1556 1557 1558 1560 1561 1562 1562 1562 1563 1563 1563 1564 1564 1564 1564 1565 1565 1565
1506 1509 1511 1513 1514 1516 1518 1519 1520 1521 1523 1525 1527 1529 1532 1534 1536 1538 1540 1541 1543 1545 1547 1549 1550 1552 1553 1555 1556 1557 1558 1559 1559 1560 1560 1561 1561 1561 1561 1562 1562 1562 1562